Weather History for Daggett-Barstow, CA

Change the Weather History Date:

Monday, April 8, 2013

  Actual Average Record
Temperature  
Mean Temperature 60 °F -  
Max Temperature 66 °F 78 °F 100 °F (1989)
Min Temperature 53 °F 50 °F 37 °F (1998)
Degree Days  
Heating Degree Days 6    
Growing Degree Days 10 (Base 50)    
Moisture  
Dew Point 28 °F    
Average Humidity 32    
Maximum Humidity 53    
Minimum Humidity 23    
Precipitation  
Precipitation 0.00 in - - ()
Sea Level Pressure  
Sea Level Pressure 29.58 in    
Wind  
Wind Speed 34 mph (West)    
Max Wind Speed 47 mph    
Max Gust Speed 58 mph    
Visibility 6 miles    
Events Rain    
Averages and records for this station are not official NWS values.
T = Trace of Precipitation, MM = Missing Value Source: NWS Daily Summary

Daily Weather History Graph

Daily Weather History Graph

Search for Another Location

Airport:

Trip Planner

Search our weather history database for the weather conditions in past years. The results will help you decide how hot, cold, wet, or windy it might be!

Date:

Astronomy

Apr. 08, 2013 Rise Set
Actual Time 6:24 AM PDT 7:14 PM PDT
Civil Twilight 5:58 AM PDT 7:39 PM PDT
Nautical Twilight 5:28 AM PDT 8:10 PM PDT
Astronomical Twilight 4:56 AM PDT 8:41 PM PDT
Moon 5:13 AM PDT (4/8) 5:55 PM PDT (4/8)
Length of Visible Light 13h 41m
Length of Day
12h 50m
Waning Crescent, 3% of the Moon is Illuminated
Apr 8
Waning Crescent
Apr 10
New
Apr 18
First Quarter
Apr 25
Full
May 2
Last Quarter

Hourly Weather History & Observations

Time (PDT) Temp. Dew Point Humidity Pressure Visibility Wind Dir Wind Speed Gust Speed Precip Events Conditions
12:50 AM 62.1 °F 37.9 °F 41% 29.64 in 10.0 mi West 32.2 mph 44.9 mph N/A   Clear
1:50 AM 61.0 °F 37.0 °F 41% 29.60 in 10.0 mi WSW 24.2 mph 34.5 mph N/A   Clear
2:50 AM 60.1 °F 39.0 °F 46% 29.58 in 10.0 mi WSW 20.7 mph - N/A   Clear
3:50 AM 60.1 °F 39.9 °F 47% 29.53 in 10.0 mi WSW 33.4 mph 41.4 mph N/A   Clear
4:50 AM 55.9 °F 39.0 °F 53% 29.54 in 10.0 mi WSW 24.2 mph 34.5 mph N/A   Partly Cloudy
5:50 AM 55.0 °F 37.9 °F 53% 29.52 in 10.0 mi WSW 26.5 mph 31.1 mph N/A   Overcast
6:38 AM 53.6 °F 32.0 °F 44% 29.57 in 5.0 mi West 36.8 mph 50.6 mph N/A   Haze
6:50 AM 54.0 °F 30.9 °F 41% 29.52 in 7.0 mi West 34.5 mph 48.3 mph N/A   Scattered Clouds
7:03 AM 55.4 °F 30.2 °F 38% 29.59 in 2.5 mi West 34.5 mph 50.6 mph N/A   Haze
7:07 AM 55.4 °F 30.2 °F 38% 29.59 in 6.0 mi West 35.7 mph 50.6 mph N/A   Haze
7:50 AM 55.0 °F 32.0 °F 42% 29.57 in 10.0 mi West 28.8 mph 38.0 mph N/A   Clear
8:13 AM 55.4 °F 32.0 °F 41% 29.57 in 2.5 mi WSW 42.6 mph 52.9 mph N/A   Haze
8:18 AM 55.4 °F 32.0 °F 41% 29.56 in 1.0 mi WSW 39.1 mph 52.9 mph N/A   Haze
8:25 AM 55.4 °F 30.2 °F 38% 29.59 in 2.0 mi WSW 38.0 mph 51.8 mph N/A   Haze
8:30 AM 55.4 °F 30.2 °F 38% 29.59 in 7.0 mi West 33.4 mph 47.2 mph N/A   Partly Cloudy
8:50 AM 57.0 °F 28.9 °F 34% 29.55 in 10.0 mi West 38.0 mph 49.5 mph N/A   Clear
9:11 AM 57.2 °F 26.6 °F 31% 29.60 in 2.0 mi WSW 40.3 mph 51.8 mph N/A   Haze
9:22 AM 57.2 °F 26.6 °F 31% 29.60 in 1.5 mi West 40.3 mph 54.1 mph N/A   Haze
9:27 AM 57.2 °F 24.8 °F 29% 29.60 in 0.5 mi West 41.4 mph 57.5 mph 0.00 in Rain Light Rain
9:35 AM 57.2 °F 26.6 °F 31% 29.61 in 2.5 mi West 36.8 mph 49.5 mph 0.00 in   Haze
9:39 AM 57.2 °F 26.6 °F 31% 29.61 in 7.0 mi West 38.0 mph 47.2 mph 0.00 in   Mostly Cloudy
9:50 AM 57.0 °F 25.0 °F 29% 29.57 in 4.0 mi West 41.4 mph 51.8 mph 0.00 in   Haze
10:04 AM 57.2 °F 24.8 °F 29% 29.60 in 1.5 mi West 47.2 mph 55.2 mph N/A   Haze
10:09 AM 57.2 °F 24.8 °F 29% 29.60 in 1.0 mi West 43.7 mph 56.4 mph 0.00 in Rain Light Rain
10:21 AM 57.2 °F 23.0 °F 27% 29.60 in 3.0 mi West 41.4 mph 48.3 mph 0.00 in Rain Light Rain
10:29 AM 57.2 °F 23.0 °F 27% 29.61 in 2.0 mi West 36.8 mph 52.9 mph 0.00 in   Haze
10:39 AM 57.2 °F 23.0 °F 27% 29.60 in 3.0 mi West 41.4 mph 51.8 mph 0.00 in   Haze
10:50 AM 57.9 °F 23.0 °F 26% 29.55 in 2.5 mi West 43.7 mph 51.8 mph 0.00 in   Haze
10:55 AM 57.2 °F 23.0 °F 27% 29.59 in 3.0 mi West 41.4 mph 49.5 mph N/A   Haze
11:02 AM 57.2 °F 23.0 °F 27% 29.59 in 2.5 mi West 43.7 mph 55.2 mph N/A   Haze
11:06 AM 57.2 °F 24.8 °F 29% 29.59 in 2.0 mi West 41.4 mph 55.2 mph N/A   Haze
11:12 AM 57.2 °F 24.8 °F 29% 29.59 in 3.0 mi West 39.1 mph 49.5 mph N/A   Haze
11:29 AM 59.0 °F 24.8 °F 27% 29.58 in 2.0 mi West 43.7 mph 51.8 mph N/A   Haze
11:33 AM 59.0 °F 23.0 °F 25% 29.58 in 1.8 mi West 38.0 mph 52.9 mph N/A   Haze
11:38 AM 59.0 °F 23.0 °F 25% 29.59 in 2.5 mi West 35.7 mph 52.9 mph N/A   Haze
11:42 AM 60.8 °F 24.8 °F 25% 29.60 in 5.0 mi West 33.4 mph 48.3 mph N/A   Haze
11:44 AM 60.8 °F 23.0 °F 23% 29.59 in 7.0 mi West 35.7 mph 48.3 mph N/A   Scattered Clouds
11:50 AM 59.0 °F 23.0 °F 25% 29.56 in 10.0 mi West 38.0 mph 47.2 mph N/A   Scattered Clouds
12:50 PM 61.0 °F 23.0 °F 23% 29.56 in 10.0 mi West 33.4 mph 43.7 mph N/A   Overcast
1:50 PM 64.9 °F 26.1 °F 23% 29.54 in 10.0 mi West 24.2 mph 38.0 mph N/A   Mostly Cloudy
2:50 PM 64.9 °F 26.1 °F 23% 29.53 in 10.0 mi WSW 35.7 mph 47.2 mph N/A   Mostly Cloudy
3:50 PM 66.0 °F 27.0 °F 23% 29.52 in 10.0 mi WSW 34.5 mph 46.0 mph N/A   Overcast
4:50 PM 66.0 °F 27.0 °F 23% 29.51 in 10.0 mi WSW 28.8 mph 39.1 mph N/A   Overcast
5:50 PM 63.0 °F 27.0 °F 26% 29.56 in 10.0 mi West 26.5 mph 39.1 mph N/A   Mostly Cloudy
6:50 PM 61.0 °F 28.0 °F 29% 29.59 in 10.0 mi West 27.6 mph 34.5 mph 0.00 in   Overcast
7:50 PM 59.0 °F 28.0 °F 31% 29.63 in 10.0 mi West 27.6 mph 33.4 mph N/A   Overcast
8:50 PM 55.0 °F 30.0 °F 38% 29.66 in 10.0 mi WSW 29.9 mph 38.0 mph N/A   Mostly Cloudy
10:50 PM 55.0 °F 27.0 °F 34% 29.70 in 10.0 mi WSW 20.7 mph 27.6 mph N/A   Clear